Flag for France Weather past 2 weeks in Poitiers, France

Now
52 °F

Clear.


Feels Like: 49 °F
Forecast: 55 / 74 °F
Wind: 7 mph from Southwest

Location: Poitiers Airport

Current Time: Jun 2, 2015 at 3:40:42 AM

Latest Report: Jun 2, 2015 at 3:00 AM


Visibility: 10 mi

Pressure: 30.04 "Hg

Humidity: 94%

Dew point: 50 °F

Location of PoitiersLocation

Historic Weather in Poitiers — Graph

°F

Poitiers temperature yesterday

Maximum temperature yesterday: 66 °F (at 3:00 PM)
Minimum temperature yesterday: 50 °F (at 6:30 AM)
Average temperature yesterday: 58 °F

Past Weeks' High & Low Weather Summary

 TemperatureHumidityPressure
High72 °F (May 25, 4:30 PM)100% (May 20, 7:00 AM)30.39 "Hg (May 20, 7:00 AM)
Low37 °F (May 20, 7:00 AM)31% (May 27, 6:30 PM)29.89 "Hg (May 18, 4:30 PM)
Average57 °F71%30.12 "Hg
* Reported May 18 2:00 AM — Jun 2 2:30 AM, Poitiers, Weather by CustomWeather, © 2015

Note: Actual official high and low records may vary slightly from our data, if they occured in-between our weather recording intervals... More about our weather records

Advertising

Poitiers weather history for previous 24 hours

 ConditionsComfort  
Time TempWeatherWind HumidityBarometerVisibility
2:30 AM
Tue, Jun 2
52 °FPassing clouds.3 mph88%30.07 "HgN/A
2:00 AM50 °FClear.5 mph94%30.07 "Hg10 mi
1:30 AM50 °FClear.6 mph94%30.07 "Hg10 mi
1:00 AM50 °FClear.7 mph88%30.07 "Hg10 mi
12:30 AM52 °FClear.6 mph82%30.09 "Hg10 mi
12:00 AM54 °FClear.5 mph77%30.09 "Hg10 mi
11:30 PM
Mon, Jun 1
54 °FClear.6 mph77%30.09 "Hg10 mi
11:00 PM55 °FClear.7 mph72%30.09 "Hg10 mi
10:30 PM55 °FSunny.8 mph72%30.07 "Hg10 mi
10:00 PM57 °FSunny.8 mph67%30.04 "Hg10 mi
9:30 PM59 °FSunny.7 mph63%30.04 "Hg10 mi
9:00 PM61 °FSunny.9 mph59%30.04 "Hg10 mi
8:30 PM63 °FSunny.10 mph59%30.04 "Hg10 mi
8:00 PM64 °FPartly sunny.12 mph56%30.04 "HgN/A
7:30 PM64 °FPartly sunny.13 mph56%30.07 "HgN/A
7:00 PM64 °FPartly sunny.17 mph52%30.04 "HgN/A
6:30 PM64 °FPartly sunny.17 mph52%30.04 "HgN/A
6:00 PM66 °FBroken clouds.15 mph56%30.04 "HgN/A
5:30 PM66 °FScattered clouds.12 mph60%30.07 "HgN/A
5:00 PM66 °FMostly cloudy.10 mph60%30.07 "HgN/A
4:30 PM64 °FPartly sunny.12 mph60%30.07 "HgN/A
4:00 PM66 °FMostly cloudy.9 mph64%30.07 "HgN/A
3:30 PM64 °FMostly cloudy.9 mph60%30.09 "HgN/A
3:00 PM66 °FPartly sunny.8 mph56%30.09 "HgN/A
2:30 PM63 °FCloudy.9 mph64%30.09 "HgN/A
2:00 PM63 °FBroken clouds.6 mph59%30.09 "HgN/A
1:30 PM61 °FCloudy.6 mph63%30.09 "HgN/A
1:00 PM61 °FPartly sunny.5 mph68%30.12 "HgN/A
12:30 PM59 °FMostly cloudy.7 mph63%30.12 "HgN/A
12:00 PM59 °FPartly sunny.6 mph68%30.12 "HgN/A
11:30 AM59 °FBroken clouds.5 mph63%30.12 "HgN/A
11:00 AM57 °FBroken clouds.3 mph72%30.12 "HgN/A
10:30 AM57 °FPartly sunny.2 mph72%30.12 "HgN/A
10:00 AM55 °FPartly sunny.No wind77%30.12 "HgN/A
9:30 AM54 °FMostly cloudy.2 mph82%30.12 "HgN/A
9:00 AM52 °FOvercast.5 mph88%30.12 "HgN/A
8:30 AM50 °FMostly cloudy.5 mph94%30.12 "HgN/A
8:00 AM52 °FMostly cloudy.5 mph88%30.12 "HgN/A
7:30 AM52 °FSunny.No wind88%30.12 "Hg10 mi
7:00 AM50 °FClear.No wind94%30.09 "Hg10 mi
6:30 AM50 °FOvercast.2 mph94%30.09 "HgN/A
6:00 AM52 °FMostly cloudy.3 mph88%30.09 "HgN/A
5:30 AM52 °FMostly cloudy.2 mph88%30.09 "HgN/A
5:00 AM52 °FMostly cloudy.2 mph88%30.09 "HgN/A
4:30 AM52 °FOvercast.5 mph88%30.09 "HgN/A
4:00 AM52 °FOvercast.2 mph94%30.09 "HgN/A
3:30 AM52 °FMostly cloudy.6 mph94%30.09 "HgN/A
3:00 AM52 °FLow clouds.7 mph94%30.07 "HgN/A
Weather by CustomWeather, © 2015

See weather overviewHow to use our weather pages